FLOCK 4P-12 (44810 NORAD) Tracking and Keplerian Element Data

This shows tracking and keplerian element data for the satellite.

Feedback or suggestion? Click here.




ElementValue
Catalog44810
NameFLOCK 4P-12
Epoch Orbit1942
Epoch Day94.1011882
Epoch Year2020
RAAN155.5191
Inclination97.5035
Eccentricity0.0014279
Argument of Perigee155.9861
Mean Anonmoly204.2043
Mean Motion15.19596592
Decay Rate2.133E-05
L11 44810U 19081G 20094.10118820 .00002133 00000-0 10326-3 0 9996
L22 44810 97.5035 155.5191 0014279 155.9861 204.2043 15.19596592 19426

Live tracking and technical data element details for FLOCK 4P-12 (NORAD 44810). FLOCK 4P-12 can be tracked NOW for your location showing map with azimuth and elevation plus other details from your city location.

Track the satellite on the map from your city or location and see movement details for azimuth, elevation, latitude, longitude, range, height, and movement on the map or in text.







IsCatalogInMostPopularTable: catalog: 44810, numindb: 44
Update: records affected: 1



GetName: 44810 FLOCK 4P-12

Hit Count: updated at: Sun, 05 Apr 2020 19:27:50 GMT